When you browse on this site, cookies collect data to enhance your experience and personalize the content and advertising you see.
Visit our Privacy Policy to learn more. By continuing to use the site, you agree to this use of cookies and data.
  • En España
  • Lista de países
  • Para 7 días
  • Temperatura del agua
  • Mapa Satelital
  • El tiempo en el mapa
  • Informadores
  • user-avatar
    Iniciar sesión

    Tiempo cada hora Caltenco

    Hoy, 19 Diciembre, Miércoles

    Tiempo Temperatura Precipitaciones Viento Presión Humedad
    00:00 +13°C° 0 mm 2 mps 596 mmHg 83%
    01:00 +13°C° 0 mm 2 mps 596 mmHg 85%
    02:00 +13°C° 0 mm 2 mps 595 mmHg 87%
    03:00 +12°C° 0 mm 1 mps 595 mmHg 88%
    04:00 +12°C° 0 mm 1 mps 595 mmHg 89%
    05:00 +12°C° 0 mm 1 mps 595 mmHg 90%
    06:00 +13°C° 0 mm 2 mps 596 mmHg 85%
    07:00 +14°C° 0 mm 2 mps 596 mmHg 80%
    08:00 +15°C° 0 mm 2 mps 597 mmHg 75%
    09:00 +16°C° 0 mm 3 mps 597 mmHg 69%
    10:00 +17°C° 0 mm 4 mps 597 mmHg 62%
    11:00 +17°C° 0 mm 5 mps 597 mmHg 55%
    12:00 +19°C° 0 mm 5 mps 597 mmHg 52%
    13:00 +19°C° 0 mm 6 mps 596 mmHg 49%
    14:00 +20°C° 0 mm 6 mps 596 mmHg 46%
    15:00 +19°C° 0 mm 6 mps 596 mmHg 49%
    16:00 +16°C° 0 mm 5 mps 595 mmHg 52%
    17:00 +15°C° 0 mm 4 mps 595 mmHg 55%
    18:00 +14°C° 0 mm 4 mps 595 mmHg 59%
    19:00 +14°C° 0 mm 3 mps 596 mmHg 63%
    20:00 +14°C° 0 mm 2 mps 596 mmHg 67%
    21:00 +13°C° 0 mm 2 mps 596 mmHg 70%
    22:00 +12°C° 0 mm 1 mps 596 mmHg 73%
    23:00 +12°C° 0 mm 1 mps 596 mmHg 76%

    Mañana, 20 Diciembre, Jueves

    Tiempo Temperatura Precipitaciones Viento Presión Humedad
    00:00 +11°C° 0 mm 1 mps 596 mmHg 79%
    01:00 +11°C° 0 mm 1 mps 595 mmHg 82%
    02:00 +10°C° 0 mm 1 mps 595 mmHg 85%
    03:00 +10°C° 0 mm 1 mps 595 mmHg 85%
    04:00 +10°C° 0 mm 1 mps 595 mmHg 84%
    05:00 +9°C° 0 mm 1 mps 595 mmHg 84%
    06:00 +11°C° 0 mm 1 mps 597 mmHg 74%
    07:00 +13°C° 0 mm 1 mps 598 mmHg 63%
    08:00 +14°C° 0 mm 1 mps 599 mmHg 53%
    09:00 +16°C° 0 mm 2 mps 600 mmHg 45%
    10:00 +18°C° 0 mm 2 mps 600 mmHg 37%
    11:00 +19°C° 0 mm 3 mps 601 mmHg 29%
    12:00 +20°C° 0 mm 3 mps 600 mmHg 29%
    13:00 +20°C° 0 mm 3 mps 600 mmHg 29%
    14:00 +20°C° 0 mm 3 mps 600 mmHg 29%
    15:00 +19°C° 0 mm 3 mps 599 mmHg 37%
    16:00 +17°C° 0 mm 3 mps 599 mmHg 44%
    17:00 +16°C° 0 mm 3 mps 599 mmHg 51%
    18:00 +14°C° 0 mm 3 mps 599 mmHg 57%
    19:00 +13°C° 0 mm 3 mps 599 mmHg 64%
    20:00 +12°C° 0 mm 3 mps 599 mmHg 71%
    21:00 +11°C° 0 mm 3 mps 599 mmHg 73%
    22:00 +11°C° 0 mm 3 mps 599 mmHg 75%
    23:00 +10°C° 0 mm 3 mps 599 mmHg 78%

    Pasado mañana, 21 Diciembre, Viernes

    Tiempo Temperatura Precipitaciones Viento Presión Humedad
    00:00 +10°C° 0 mm 3 mps 599 mmHg 78%
    01:00 +9°C° 0 mm 3 mps 598 mmHg 79%
    02:00 +9°C° 0 mm 3 mps 598 mmHg 80%
    03:00 +9°C° 0 mm 3 mps 598 mmHg 81%
    04:00 +8°C° 0 mm 3 mps 598 mmHg 81%
    05:00 +8°C° 0 mm 3 mps 598 mmHg 82%
    06:00 +9°C° 0 mm 3 mps 599 mmHg 75%
    07:00 +10°C° 0 mm 3 mps 600 mmHg 68%
    08:00 +11°C° 0 mm 3 mps 601 mmHg 62%
    09:00 +13°C° 0 mm 3 mps 601 mmHg 53%
    10:00 +16°C° 0 mm 3 mps 601 mmHg 44%
    11:00 +17°C° 0 mm 2 mps 602 mmHg 35%
    12:00 +18°C° 0 mm 2 mps 601 mmHg 33%
    13:00 +19°C° 0 mm 3 mps 601 mmHg 31%
    14:00 +19°C° 0 mm 3 mps 600 mmHg 29%
    15:00 +18°C° 0 mm 3 mps 600 mmHg 37%
    16:00 +16°C° 0 mm 3 mps 599 mmHg 44%
    17:00 +14°C° 0 mm 3 mps 599 mmHg 51%
    18:00 +13°C° 0 mm 3 mps 599 mmHg 58%
    19:00 +13°C° 0 mm 2 mps 599 mmHg 64%
    20:00 +12°C° 0 mm 2 mps 599 mmHg 71%
    21:00 +10°C° 0 mm 2 mps 599 mmHg 71%
    22:00 +10°C° 0 mm 2 mps 599 mmHg 72%
    23:00 +10°C° 0 mm 1 mps 598 mmHg 72%

    22 Diciembre, Sábado

    Tiempo Temperatura Precipitaciones Viento Presión Humedad
    00:00 +10°C° 0 mm 1 mps 598 mmHg 70%
    01:00 +10°C° 0 mm 1 mps 597 mmHg 69%
    02:00 +9°C° 0 mm 1 mps 597 mmHg 67%
    03:00 +9°C° 0 mm 1 mps 597 mmHg 65%
    04:00 +9°C° 0 mm 1 mps 597 mmHg 63%
    05:00 +9°C° 0 mm 1 mps 597 mmHg 60%
    06:00 +11°C° 0 mm 1 mps 598 mmHg 53%
    07:00 +13°C° 0 mm 1 mps 599 mmHg 46%
    08:00 +15°C° 0 mm 1 mps 601 mmHg 39%
    09:00 +18°C° 0 mm 1 mps 601 mmHg 34%
    10:00 +19°C° 0 mm 1 mps 601 mmHg 28%
    11:00 +21°C° 0 mm 1 mps 602 mmHg 23%
    12:00 +22°C° 0 mm 1 mps 601 mmHg 23%
    13:00 +21°C° 0 mm 2 mps 601 mmHg 23%
    14:00 +23°C° 0 mm 2 mps 600 mmHg 22%
    15:00 +20°C° 0 mm 2 mps 600 mmHg 29%
    16:00 +19°C° 0 mm 2 mps 600 mmHg 36%
    17:00 +17°C° 0 mm 2 mps 599 mmHg 43%
    18:00 +16°C° 0 mm 2 mps 599 mmHg 49%
    19:00 +15°C° 0 mm 2 mps 599 mmHg 56%
    20:00 +14°C° 0 mm 1 mps 600 mmHg 62%
    21:00 +13°C° 0 mm 1 mps 599 mmHg 65%
    22:00 +12°C° 0 mm 1 mps 599 mmHg 68%
    23:00 +12°C° 0 mm 1 mps 599 mmHg 71%

    23 Diciembre, Domingo

    Tiempo Temperatura Precipitaciones Viento Presión Humedad
    00:00 +11°C° 0 mm 1 mps 598 mmHg 72%
    01:00 +11°C° 0 mm 1 mps 598 mmHg 72%
    02:00 +10°C° 0 mm 1 mps 598 mmHg 73%
    03:00 +10°C° 0 mm 1 mps 597 mmHg 71%
    04:00 +10°C° 0 mm 1 mps 597 mmHg 70%
    05:00 +9°C° 0 mm 1 mps 597 mmHg 68%
    06:00 +11°C° 0 mm 1 mps 599 mmHg 59%
    07:00 +13°C° 0 mm 1 mps 600 mmHg 51%
    08:00 +15°C° 0 mm 1 mps 601 mmHg 42%
    09:00 +18°C° 0 mm 1 mps 601 mmHg 34%
    10:00 +20°C° 0 mm 1 mps 602 mmHg 27%
    11:00 +22°C° 0 mm 1 mps 602 mmHg 19%
    12:00 +21°C° 0 mm 2 mps 601 mmHg 18%
    13:00 +23°C° 0 mm 2 mps 601 mmHg 17%
    14:00 +22°C° 0 mm 3 mps 601 mmHg 16%
    15:00 +20°C° 0 mm 2 mps 600 mmHg 23%
    16:00 +18°C° 0 mm 2 mps 599 mmHg 29%
    17:00 +16°C° 0 mm 2 mps 599 mmHg 35%
    18:00 +15°C° 0 mm 2 mps 599 mmHg 42%
    19:00 +14°C° 0 mm 2 mps 599 mmHg 49%
    20:00 +13°C° 0 mm 2 mps 599 mmHg 56%
    21:00 +13°C° 0 mm 2 mps 599 mmHg 60%
    22:00 +12°C° 0 mm 2 mps 599 mmHg 64%
    23:00 +10°C° 0 mm 2 mps 598 mmHg 68%

    24 Diciembre, Lunes

    Tiempo Temperatura Precipitaciones Viento Presión Humedad
    00:00 +10°C° 0 mm 2 mps 598 mmHg 70%
    01:00 +10°C° 0 mm 2 mps 598 mmHg 71%
    02:00 +9°C° 0 mm 2 mps 598 mmHg 73%
    03:00 +9°C° 0 mm 2 mps 598 mmHg 72%
    04:00 +8°C° 0 mm 2 mps 598 mmHg 72%
    05:00 +8°C° 0 mm 2 mps 597 mmHg 72%
    06:00 +10°C° 0 mm 2 mps 598 mmHg 62%
    07:00 +12°C° 0 mm 2 mps 599 mmHg 52%
    08:00 +14°C° 0 mm 2 mps 600 mmHg 42%
    09:00 +16°C° 0 mm 2 mps 601 mmHg 35%
    10:00 +18°C° 0 mm 3 mps 601 mmHg 28%
    11:00 +19°C° 0 mm 3 mps 602 mmHg 21%
    12:00 +20°C° 0 mm 3 mps 601 mmHg 21%
    13:00 +20°C° 0 mm 3 mps 601 mmHg 22%
    14:00 +21°C° 0 mm 3 mps 600 mmHg 23%
    15:00 +19°C° 0 mm 3 mps 600 mmHg 31%
    16:00 +17°C° 0 mm 3 mps 599 mmHg 39%
    17:00 +16°C° 0 mm 3 mps 599 mmHg 47%
    18:00 +14°C° 0 mm 3 mps 598 mmHg 54%
    19:00 +14°C° 0 mm 2 mps 598 mmHg 61%
    20:00 +12°C° 0 mm 2 mps 598 mmHg 68%
    21:00 +12°C° 0 mm 2 mps 598 mmHg 69%
    22:00 +12°C° 0 mm 2 mps 598 mmHg 69%
    23:00 +10°C° 0 mm 2 mps 598 mmHg 70%
    Mostrar más